[[{"header":{"parameterUnit":"m.s-1","parameterCategory":2,"la1":30.2991,"la2":30.254,"lo1":-89.0895,"lo2":-89.0444,"dy":0.0017,"dx":0.0017,"nx":28,"ny":28,"refTime":"2024-03-02T09:00:00:Z","depth":"0","parameterNumber":2,"parameterNumberName":"U-component_of_CURRENTS"},"data":[0,0,0,0,0,0,0,0,0,0,0,0,0,0,0,0,0,0,0,0,0,0,0,0,0,0,0,0,0,0,0,0,0,0,0,0,0,0,0,0,0,0,0,0,0,0,0,0,0,0,0,0,0,0,0,0,0,0,0.3326,0.3328,0,0.3415,0.3415,0.3415,0.3417,0.3416,0.3416,0.3415,0.3336,0.3335,0.3333,0,0,0,0,0,0,0,0,0,0,0,0,0,0.3226,0.3226,0.3326,0.3328,0.333,0.3415,0.3415,0.3416,0.3417,0.3416,0.3416,0.3415,0.3337,0.3335,0.3333,0,0,0,0,0,0,0,0,0,0,0,0,0,0.3279,0.3227,0.3326,0.3346,0.335,0.3415,0.3415,0.3416,0.3417,0.3416,0.3416,0.3415,0.3338,0.3335,0.3332,0.3327,0,0,0.3324,0.3323,0,0,0,0,0,0,0,0,0.3276,0.3282,0.3342,0.3345,0.3349,0.3411,0.3352,0.3381,0.3417,0.3383,0.3415,0.3415,0.3352,0.3348,0.3356,0.3323,0.332,0.3324,0.3323,0.3321,0.3321,0,0,0,0,0,0,0,0.3272,0.3279,0.3353,0.3344,0.3349,0.3376,0.3381,0.3357,0.3359,0.3386,0.3388,0.3411,0.3351,0.3359,0.3354,0.3319,0.3324,0.3322,0.332,0.3319,0.3315,0.3316,0,0,0,0,0,0,0.3275,0.3275,0.335,0.3356,0.332,0.3378,0.3384,0.3385,0.3364,0.3364,0.3412,0.3411,0.3364,0.3357,0.3351,0.3359,0.3321,0.3319,0.3317,0.3313,0.3315,0.3317,0,0,0,0,0,0,0.3272,0.328,0.3347,0.3325,0.3337,0.3381,0.3382,0.3387,0.3395,0.3387,0.3381,0.3415,0.3363,0.3355,0.3354,0.3355,0.3318,0.3315,0.3312,0.3314,0.3316,0.3365,0,0,0,0,0,0,0.3268,0.3278,0.3269,0.3325,0.3338,0.3386,0.3384,0.339,0.3415,0.3414,0.3388,0.3381,0.3362,0.3359,0.3352,0.3351,0.3313,0.331,0.3313,0.3315,0.3361,0.3368,0.3374,0,0,0,0,0,0.3264,0.3251,0.3267,0.3277,0.3327,0.3388,0.3396,0.3421,0.3415,0.3423,0.3421,0.3381,0.3371,0.3358,0.335,0.3348,0.3308,0.3312,0.3315,0.3358,0.3367,0.3374,0,0,0,0,0,0,0.3177,0.3253,0.3271,0.3274,0.3332,0.3391,0.3398,0.3422,0.3428,0.342,0.34,0.3394,0.3394,0.3372,0.3359,0.3359,0.3332,0.3334,0.3368,0.3376,0.3382,0.3382,0.3311,0,0,0,0,0,0.3164,0.3189,0.3261,0.3266,0.3291,0.3345,0.3369,0.3396,0.3422,0.3424,0.3417,0.3406,0.3402,0.339,0.3383,0.3378,0.3387,0.3373,0.338,0.3386,0.3383,0.3412,0.3421,0.3328,0.3328,0.3328,0,0,0.3137,0.318,0.3194,0.3254,0.3292,0.3338,0.3355,0.3397,0.343,0.3411,0.343,0.3426,0.3409,0.3416,0.3412,0.3394,0.3426,0.339,0.3394,0.3388,0.3416,0.3425,0.3433,0.333,0.3329,0.3329,0,0,0.3113,0.3129,0.3154,0.3204,0.3279,0.3323,0.3338,0.3405,0.3422,0.3456,0.3453,0.3461,0.3448,0.345,0.3444,0.348,0.3464,0.3472,0.3494,0.3523,0.3531,0.3537,0.3597,0.3609,0.347,0.347,0.347,0,0.3078,0.3111,0.3169,0.3208,0.3247,0.3317,0.3353,0.3392,0.3452,0.3467,0.3463,0.3481,0.3465,0.3479,0.3499,0.349,0.3518,0.3462,0.3531,0.3538,0.3543,0.3603,0.3615,0.3473,0.3472,0.3472,0.3472,0,0.3091,0.3113,0.3128,0.3208,0.3255,0.3296,0.3375,0.3415,0.3446,0.3484,0.3511,0.3516,0.3523,0.3525,0.3519,0.3554,0.3567,0.354,0.3508,0.3556,0.3616,0.3628,0.3477,0.3476,0.3475,0.3474,0,0,0.3026,0.312,0.3124,0.3154,0.3257,0.3295,0.336,0.3434,0.3466,0.3514,0.3549,0.356,0.3568,0.3564,0.3564,0.3591,0.3669,0.3586,0.3586,0.3642,0.3767,0.3733,0.3742,0.3656,0.3657,0.3658,0.3805,0,0.302,0.3071,0.3132,0.3184,0.3217,0.3302,0.3356,0.343,0.3484,0.3538,0.3563,0.3592,0.3581,0.359,0.3617,0.3658,0.3697,0.3634,0.3715,0.3718,0.3677,0.3752,0.3535,0.3643,0.3816,0.3818,0.3819,0,0.3016,0.3053,0.3093,0.3171,0.3193,0.3236,0.3329,0.3391,0.3489,0.3528,0.3573,0.3607,0.3668,0.3643,0.3739,0.3703,0.3738,0.3768,0.3773,0.3725,0.3704,0.3616,0.3657,0.3556,0.3837,0.3836,0.3834,0,0.2946,0.3021,0.3045,0.3074,0.318,0.3207,0.3269,0.3373,0.3429,0.3528,0.3573,0.3644,0.3687,0.3743,0.3809,0.3786,0.3917,0.3888,0.3895,0.3895,0.3715,0.3696,0.3654,0.3948,0.3948,0.3947,0.3947,0,0.2914,0.2928,0.3006,0.3021,0.3059,0.3148,0.3205,0.3282,0.3389,0.3459,0.3552,0.3618,0.3713,0.3799,0.3844,0.3918,0.3947,0.3921,0.3929,0.3732,0.3713,0.3618,0.3588,0.3953,0.3951,0.395,0.3949,0,0.2837,0.2884,0.2921,0.3006,0.3028,0.3057,0.3171,0.322,0.3327,0.3427,0.3466,0.3622,0.3744,0.3834,0.3948,0.396,0.3916,0.4039,0.3823,0.3802,0.3703,0.3684,0.3559,0.3465,0.409,0.409,0.409,0,0.28,0.281,0.2893,0.2919,0.2954,0.301,0.3059,0.3173,0.3236,0.3428,0.347,0.363,0.3729,0.3899,0.3945,0.4037,0.3903,0.3883,0.3783,0.3685,0.3671,0.3541,0.346,0.3589,0.3585,0.3582,0.3579,0,0.2746,0.2778,0.2815,0.2869,0.2907,0.2957,0.3028,0.3065,0.3217,0.3302,0.3446,0.3547,0.3722,0.3728,0.3838,0.3856,0.367,0.3819,0.3745,0.3306,0.3129,0.3044,0.3545,0.3549,0.3552,0.3554,0.3556,0.3557,0.2709,0.2724,0.2782,0.282,0.2869,0.29,0.2896,0.2987,0.3062,0.3164,0.333,0.3415,0.3477,0.3609,0.3609,0.3466,0.3525,0.3351,0.3357,0.325,0.3072,0.3538,0.3526,0.3529,0.3531,0.3533,0.3535,0,0.2667,0.2692,0.2735,0.2775,0.2787,0.2829,0.2873,0.2849,0.2882,0.3028,0.3118,0.3147,0.3124,0.315,0.3091,0.3007,0.2853,0.2923,0.2656,0.2619,0.3049,0.2937,0.2758,0.2758,0.2758,0.2758,0.2758,0.2759,0.265,0.2661,0.2677,0.2673,0.2691,0.2649,0.2635,0.2623,0.2686,0.2696,0.2719,0.2789,0.2847,0.2801,0.2662,0.2597,0.2421,0.2303,0.2383,0.2653,0.2691,0.2727,0.2612,0.2367,0.2367,0.1767,0.1763,0.176]},{"header":{"parameterUnit":"m.s-1","parameterCategory":2,"la1":30.2991,"la2":30.254,"lo1":-89.0895,"lo2":-89.0444,"dy":0.0017,"dx":0.0017,"nx":28,"ny":28,"refTime":"2024-03-02T09:00:00:Z","depth":"0","parameterNumber":3,"parameterNumberName":"V-component_of_CURRENTS"},"data":[0,0,0,0,0,0,0,0,0,0,0,0,0,0,0,0,0,0,0,0,0,0,0,0,0,0,0,0,0,0,0,0,0,0,0,0,0,0,0,0,0,0,0,0,0,0,0,0,0,0,0,0,0,0,0,0,0,0,-0.0884,-0.0885,0,-0.1024,-0.1025,-0.1027,-0.1036,-0.1034,-0.1032,-0.1031,-0.0959,-0.0959,-0.0958,0,0,0,0,0,0,0,0,0,0,0,0,0,-0.0695,-0.0698,-0.0884,-0.0886,-0.0887,-0.1024,-0.1025,-0.1027,-0.1036,-0.1034,-0.1032,-0.103,-0.0959,-0.0959,-0.0958,0,0,0,0,0,0,0,0,0,0,0,0,0,-0.0801,-0.0699,-0.0884,-0.0908,-0.0911,-0.1023,-0.1026,-0.1028,-0.1036,-0.1034,-0.1031,-0.1029,-0.0959,-0.0959,-0.0958,-0.1004,0,0,-0.0957,-0.0956,0,0,0,0,0,0,0,0,-0.0795,-0.0808,-0.0902,-0.0906,-0.091,-0.1009,-0.0933,-0.1009,-0.1037,-0.0989,-0.1031,-0.1028,-0.0958,-0.0957,-0.0993,-0.1,-0.0997,-0.0956,-0.0956,-0.0956,-0.0956,0,0,0,0,0,0,0,-0.0787,-0.0802,-0.094,-0.0904,-0.0909,-0.0936,-0.0947,-0.0949,-0.0982,-0.0993,-0.0994,-0.101,-0.0958,-0.0994,-0.099,-0.0996,-0.0956,-0.0956,-0.0956,-0.0955,-0.0976,-0.0977,0,0,0,0,0,0,-0.0769,-0.0795,-0.0935,-0.0944,-0.0845,-0.0941,-0.0954,-0.098,-0.0987,-0.0987,-0.1012,-0.101,-0.0996,-0.0991,-0.0987,-0.0987,-0.0956,-0.0955,-0.0955,-0.0975,-0.0976,-0.0977,0,0,0,0,0,0,-0.0765,-0.0781,-0.093,-0.0871,-0.0892,-0.0946,-0.0976,-0.0984,-0.1012,-0.1003,-0.0998,-0.1029,-0.0994,-0.0988,-0.0985,-0.0985,-0.0955,-0.0955,-0.0974,-0.0975,-0.0977,-0.102,0,0,0,0,0,0,-0.0759,-0.0779,-0.0795,-0.0871,-0.0895,-0.0999,-0.0979,-0.0989,-0.1025,-0.1024,-0.1016,-0.1008,-0.0991,-0.0986,-0.0984,-0.0984,-0.0954,-0.0973,-0.0975,-0.0976,-0.1017,-0.1022,-0.1027,0,0,0,0,0,-0.0752,-0.0777,-0.0795,-0.0812,-0.0914,-0.1001,-0.1016,-0.1046,-0.1028,-0.1057,-0.104,-0.1008,-0.0994,-0.0987,-0.0985,-0.0984,-0.0972,-0.0974,-0.0976,-0.1015,-0.1021,-0.1027,0,0,0,0,0,0,-0.0686,-0.0783,-0.0803,-0.0852,-0.0924,-0.1001,-0.1025,-0.105,-0.107,-0.1044,-0.1029,-0.1022,-0.1014,-0.1003,-0.0995,-0.0996,-0.0974,-0.0976,-0.1005,-0.1011,-0.1015,-0.0993,-0.0954,0,0,0,0,0,-0.0686,-0.074,-0.0827,-0.0866,-0.0896,-0.0963,-0.0999,-0.1023,-0.1051,-0.1059,-0.1061,-0.1043,-0.1029,-0.102,-0.1012,-0.1024,-0.0988,-0.102,-0.1025,-0.1029,-0.101,-0.0985,-0.0985,-0.0984,-0.0984,-0.0984,0,0,-0.0668,-0.073,-0.0757,-0.0858,-0.0906,-0.0948,-0.0978,-0.1029,-0.1054,-0.1043,-0.1063,-0.106,-0.1035,-0.1041,-0.1036,-0.1027,-0.101,-0.1031,-0.1035,-0.1013,-0.0986,-0.0986,-0.0986,-0.0985,-0.0985,-0.0985,0,0,-0.0649,-0.0716,-0.0744,-0.0804,-0.0883,-0.0938,-0.0951,-0.1034,-0.1059,-0.1096,-0.1076,-0.1077,-0.1083,-0.1069,-0.1055,-0.1084,-0.1034,-0.1083,-0.1091,-0.1068,-0.1067,-0.1066,-0.1016,-0.101,-0.1089,-0.1089,-0.1089,0,-0.0616,-0.0668,-0.0765,-0.0797,-0.083,-0.0925,-0.0941,-0.1001,-0.1072,-0.108,-0.1093,-0.1094,-0.1089,-0.1066,-0.1085,-0.1091,-0.1063,-0.1071,-0.1072,-0.1071,-0.1069,-0.1018,-0.1011,-0.1091,-0.1091,-0.109,-0.109,0,-0.0614,-0.0651,-0.067,-0.0746,-0.0803,-0.0841,-0.0927,-0.098,-0.1022,-0.1065,-0.1077,-0.1098,-0.1085,-0.1103,-0.1105,-0.1092,-0.1071,-0.1079,-0.1054,-0.1071,-0.1017,-0.1009,-0.1094,-0.1093,-0.1093,-0.1092,0,0,-0.0542,-0.0646,-0.0648,-0.0661,-0.0774,-0.0811,-0.0868,-0.0939,-0.0942,-0.1028,-0.1019,-0.1057,-0.1074,-0.1061,-0.1075,-0.1081,-0.1064,-0.1085,-0.1083,-0.1027,-0.0991,-0.091,-0.0893,-0.1078,-0.1077,-0.1076,-0.0957,0,-0.0502,-0.0532,-0.0606,-0.0625,-0.0645,-0.0745,-0.0783,-0.0852,-0.0919,-0.0946,-0.099,-0.0982,-0.1056,-0.1038,-0.1067,-0.1056,-0.1045,-0.1093,-0.0988,-0.0984,-0.0905,-0.0882,-0.0837,-0.0722,-0.0948,-0.0947,-0.0946,0,-0.0464,-0.0495,-0.05,-0.0552,-0.0565,-0.0591,-0.0654,-0.0696,-0.0771,-0.0809,-0.0847,-0.0885,-0.0907,-0.096,-0.0967,-0.0996,-0.0991,-0.0996,-0.0991,-0.0888,-0.0887,-0.0743,-0.0698,-0.0841,-0.0933,-0.0934,-0.0935,0,-0.0363,-0.0412,-0.041,-0.0432,-0.0513,-0.0519,-0.0557,-0.0638,-0.0638,-0.0702,-0.0682,-0.0762,-0.0728,-0.0794,-0.0839,-0.0895,-0.0818,-0.0886,-0.08,-0.0793,-0.0716,-0.0703,-0.0785,-0.0856,-0.0857,-0.0857,-0.0857,0,-0.03,-0.0292,-0.0354,-0.0353,-0.0323,-0.041,-0.0382,-0.0444,-0.0473,-0.0422,-0.0575,-0.0521,-0.0683,-0.0681,-0.0772,-0.0739,-0.0755,-0.0772,-0.0752,-0.0729,-0.072,-0.0809,-0.0896,-0.0853,-0.0854,-0.0854,-0.0855,0,-0.0197,-0.0243,-0.0233,-0.0281,-0.0276,-0.0251,-0.0248,-0.0226,-0.0274,-0.0206,-0.0203,-0.0291,-0.0294,-0.0432,-0.0483,-0.0575,-0.064,-0.0573,-0.0524,-0.05,-0.0594,-0.0683,-0.0659,-0.0712,-0.0481,-0.0478,-0.0476,0,-0.0156,-0.0141,-0.0148,-0.0116,-0.013,-0.0098,-0.0064,-0.0113,-0.0072,-0.0038,0.003,0.003,0.0054,-0.0015,-0.0177,-0.0284,-0.0457,-0.0315,-0.0427,-0.0564,-0.065,-0.0724,-0.0778,-0.0343,-0.034,-0.0337,-0.0335,0,-0.0065,-0.0065,-0.005,0.0014,0.006,0.0112,0.0164,0.023,0.0216,0.0296,0.0411,0.0437,0.0367,0.027,0.0101,-0.0007,-0.0407,-0.026,-0.0425,-0.0551,-0.0611,-0.0663,-0.0451,-0.0311,-0.0313,-0.0315,-0.0316,-0.0317,0.0021,0.0059,0.0089,0.0152,0.0213,0.0304,0.0374,0.0458,0.0581,0.071,0.0735,0.0846,0.0641,0.0413,0.0222,-0.0115,-0.0167,-0.026,-0.0352,-0.041,-0.0481,-0.0194,-0.0025,-0.0025,-0.0026,-0.0027,-0.0027,0,0.0122,0.016,0.0226,0.03,0.0386,0.0388,0.0514,0.0597,0.0781,0.0957,0.1087,0.1137,0.0874,0.0532,0.0089,-0.0183,-0.0344,-0.0364,-0.0515,-0.0567,-0.032,-0.034,-0.0203,-0.0203,-0.0203,-0.0203,-0.0203,-0.0203,0.0181,0.0264,0.0284,0.0434,0.0496,0.0613,0.0689,0.0835,0.0978,0.1239,0.1391,0.1472,0.1239,0.0366,-0.0262,-0.0423,-0.0673,-0.0667,-0.0817,-0.0728,-0.0729,-0.073,-0.0773,-0.073,-0.073,-0.1041,-0.1044,-0.1047]}],[{"header":{"parameterUnit":"m.s-1","parameterCategory":2,"la1":30.2991,"la2":30.254,"lo1":-89.0895,"lo2":-89.0444,"dy":0.0017,"dx":0.0017,"nx":28,"ny":28,"refTime":"2024-03-02T09:00:00:Z","depth":"2","parameterNumber":2,"parameterNumberName":"U-component_of_CURRENTS"},"data":[0,0,0,0,0,0,0,0,0,0,0,0,0,0,0,0,0,0,0,0,0,0,0,0,0,0,0,0,0,0,0,0,0,0,0,0,0,0,0,0,0,0,0,0,0,0,0,0,0,0,0,0,0,0,0,0,0,0,0.2147,0.2145,0,0.2086,0.2086,0.2086,0.2117,0.2118,0.2118,0.2119,0.2182,0.2183,0.2184,0,0,0,0,0,0,0,0,0,0,0,0,0,0.2198,0.2198,0.2147,0.2145,0.2144,0.2086,0.2086,0.2086,0.2116,0.2118,0.2119,0.212,0.2182,0.2183,0.2184,0,0,0,0,0,0,0,0,0,0,0,0,0,0.2167,0.2198,0.2147,0.2147,0.2146,0.2086,0.2086,0.2086,0.2116,0.2118,0.2119,0.212,0.2181,0.2183,0.2184,0.2163,0,0,0.2187,0.2188,0,0,0,0,0,0,0,0,0.2169,0.2167,0.2148,0.2147,0.2145,0.2104,0.2126,0.2115,0.2116,0.2135,0.2119,0.2121,0.2162,0.2164,0.2158,0.2166,0.2168,0.2187,0.2188,0.2189,0.2189,0,0,0,0,0,0,0,0.2171,0.2169,0.213,0.2147,0.2145,0.2118,0.2117,0.2124,0.2149,0.2133,0.2134,0.2115,0.2163,0.2157,0.216,0.2169,0.2187,0.2189,0.2189,0.219,0.2218,0.2218,0,0,0,0,0,0,0.2168,0.2171,0.2132,0.2127,0.2153,0.2116,0.2115,0.2122,0.2146,0.2148,0.2114,0.2117,0.2154,0.2159,0.2163,0.2241,0.2189,0.219,0.2191,0.2218,0.2218,0.2218,0,0,0,0,0,0,0.2169,0.2166,0.2134,0.214,0.2134,0.2113,0.2121,0.212,0.2147,0.2129,0.2135,0.2145,0.2156,0.2161,0.2206,0.224,0.219,0.2191,0.2218,0.2218,0.2218,0.2332,0,0,0,0,0,0,0.2172,0.2168,0.2163,0.2141,0.2133,0.213,0.2118,0.2117,0.2127,0.2131,0.2157,0.2162,0.2157,0.2205,0.2208,0.2241,0.2192,0.2218,0.2218,0.2218,0.2329,0.2336,0.2343,0,0,0,0,0,0.2174,0.2165,0.2164,0.2158,0.2132,0.2131,0.2127,0.2119,0.2128,0.2149,0.2169,0.2163,0.2206,0.2207,0.221,0.2244,0.2218,0.2218,0.2218,0.2325,0.2335,0.2343,0,0,0,0,0,0,0.2177,0.2166,0.2165,0.2151,0.2154,0.2134,0.2133,0.2137,0.2165,0.2165,0.2179,0.2186,0.2236,0.2213,0.2213,0.2244,0.2204,0.2204,0.2284,0.2293,0.23,0.2317,0.2193,0,0,0,0,0,0.2174,0.218,0.2166,0.2162,0.2164,0.2158,0.2153,0.2146,0.2159,0.2173,0.2203,0.221,0.2228,0.2244,0.225,0.2275,0.2277,0.2288,0.2296,0.2302,0.2314,0.236,0.2374,0.2218,0.2218,0.2218,0,0,0.2166,0.2166,0.2162,0.2164,0.2165,0.2178,0.2164,0.2158,0.2167,0.2174,0.2224,0.2248,0.2241,0.2276,0.2292,0.227,0.2344,0.2302,0.2309,0.2316,0.2362,0.2377,0.2391,0.2218,0.2218,0.2218,0,0,0.2164,0.2169,0.2174,0.2181,0.2175,0.2184,0.2197,0.2202,0.2207,0.224,0.2252,0.2306,0.2324,0.2343,0.2346,0.2391,0.2386,0.238,0.2436,0.2481,0.2496,0.2509,0.2528,0.2542,0.2379,0.2379,0.2379,0,0.215,0.2163,0.2175,0.2185,0.2183,0.2205,0.221,0.2219,0.2242,0.2265,0.2266,0.235,0.2354,0.2414,0.2429,0.2414,0.2429,0.2415,0.2497,0.2509,0.2521,0.2538,0.2551,0.2384,0.2384,0.2383,0.2383,0,0.2151,0.2163,0.2173,0.2209,0.2219,0.2224,0.2235,0.2268,0.2293,0.2319,0.2393,0.2417,0.247,0.2479,0.2472,0.2552,0.2534,0.2513,0.2489,0.2544,0.2557,0.2569,0.2392,0.239,0.2389,0.2387,0,0,0.2111,0.2161,0.2164,0.2186,0.222,0.2233,0.2265,0.2311,0.2363,0.2406,0.2482,0.2529,0.2575,0.2579,0.2591,0.2638,0.2732,0.2617,0.2617,0.2661,0.2829,0.2748,0.2753,0.274,0.2742,0.2745,0.2806,0,0.2109,0.2138,0.2158,0.2201,0.2222,0.2252,0.2307,0.2349,0.2396,0.2488,0.2528,0.2615,0.2597,0.2648,0.2691,0.2725,0.277,0.2716,0.2745,0.2746,0.269,0.2767,0.2542,0.2573,0.2818,0.282,0.2822,0,0.2089,0.2123,0.2151,0.2222,0.2236,0.2277,0.2367,0.2405,0.2521,0.2563,0.2652,0.27,0.2789,0.2761,0.285,0.2822,0.2834,0.2855,0.2857,0.2752,0.2689,0.2554,0.2586,0.2842,0.284,0.2839,0.2837,0,0.2052,0.2109,0.2142,0.2156,0.225,0.2278,0.2343,0.2448,0.2485,0.263,0.2697,0.28,0.286,0.2905,0.2929,0.2905,0.3023,0.298,0.292,0.2913,0.2709,0.268,0.3052,0.3052,0.3051,0.3051,0.3051,0,0.2025,0.2054,0.2142,0.2151,0.2227,0.2289,0.2373,0.245,0.2563,0.2644,0.2748,0.2814,0.2906,0.2968,0.2975,0.2986,0.305,0.2952,0.2938,0.2738,0.2712,0.2925,0.291,0.3054,0.3053,0.3053,0.3052,0,0.1981,0.2029,0.2077,0.2174,0.2203,0.2265,0.2361,0.2427,0.2555,0.2652,0.2705,0.2841,0.2926,0.2992,0.3073,0.3034,0.3061,0.3048,0.28,0.2755,0.2905,0.2895,0.2983,0.2981,0.2979,0.2977,0.2976,0,0.1961,0.1978,0.207,0.2102,0.2147,0.2234,0.2291,0.241,0.2466,0.2647,0.2689,0.2824,0.2872,0.2966,0.2962,0.2976,0.3037,0.2768,0.2674,0.2929,0.2906,0.2898,0.289,0.2445,0.244,0.2435,0.2432,0,0.1928,0.1966,0.2008,0.2069,0.2123,0.2175,0.2259,0.2282,0.2433,0.2503,0.2593,0.265,0.277,0.2686,0.2741,0.2714,0.2745,0.2675,0.3032,0.2495,0.2427,0.2402,0.2411,0.2392,0.2396,0.2399,0.2401,0.2403,0.1908,0.193,0.198,0.2029,0.2079,0.2099,0.2096,0.2167,0.2207,0.227,0.2395,0.2403,0.2476,0.2419,0.2368,0.2352,0.2533,0.2415,0.2427,0.2444,0.2369,0.2301,0.2227,0.223,0.2233,0.2235,0.2237,0,0.1869,0.1892,0.1929,0.1962,0.1958,0.2031,0.2057,0.201,0.1987,0.2066,0.209,0.1942,0.1914,0.1995,0.1909,0.1929,0.1899,0.1848,0.1783,0.1825,0.1862,0.1754,0.1452,0.1449,0.1446,0.1444,0,0,0.1852,0.1854,0.1855,0.1822,0.1848,0.1803,0.1787,0.1729,0.1729,0.1651,0.1637,0.1773,0.1903,0.1621,0.1619,0.1512,0.1643,0.1453,0.2089,0.2052,0.2085,0.2205,0.209,0,0,0,0,0]},{"header":{"parameterUnit":"m.s-1","parameterCategory":2,"la1":30.2991,"la2":30.254,"lo1":-89.0895,"lo2":-89.0444,"dy":0.0017,"dx":0.0017,"nx":28,"ny":28,"refTime":"2024-03-02T09:00:00:Z","depth":"2","parameterNumber":3,"parameterNumberName":"V-component_of_CURRENTS"},"data":[0,0,0,0,0,0,0,0,0,0,0,0,0,0,0,0,0,0,0,0,0,0,0,0,0,0,0,0,0,0,0,0,0,0,0,0,0,0,0,0,0,0,0,0,0,0,0,0,0,0,0,0,0,0,0,0,0,0,0.0146,0.0147,0,0.0164,0.0164,0.0164,0.0133,0.0132,0.0131,0.0131,0.0031,0.0029,0.0027,0,0,0,0,0,0,0,0,0,0,0,0,0,0.0126,0.0126,0.0146,0.0147,0.0147,0.0164,0.0164,0.0164,0.0133,0.0132,0.0131,0.013,0.0032,0.0029,0.0027,0,0,0,0,0,0,0,0,0,0,0,0,0,0.0134,0.0126,0.0146,0.0137,0.0137,0.0164,0.0164,0.0164,0.0133,0.0132,0.0131,0.013,0.0032,0.0029,0.0026,0.0026,0,0,0.0017,0.0015,0,0,0,0,0,0,0,0,0.0133,0.0134,0.0138,0.0138,0.0138,0.0149,0.0121,0.0113,0.0133,0.0129,0.0131,0.013,0.0063,0.0058,0.0058,0.0021,0.0017,0.0016,0.0015,0.0013,0.0012,0,0,0,0,0,0,0,0.0133,0.0133,0.0148,0.0139,0.0139,0.0148,0.0147,0.012,0.0095,0.013,0.0129,0.0139,0.0062,0.0061,0.0055,0.0015,0.0017,0.0014,0.0012,0.0011,-0.0026,-0.0025,0,0,0,0,0,0,0.0139,0.0133,0.0148,0.0149,0.0139,0.0149,0.0148,0.0143,0.0098,0.0093,0.0139,0.0137,0.0067,0.0059,0.0051,0.0026,0.0013,0.001,0.0008,-0.0027,-0.0026,-0.0025,0,0,0,0,0,0,0.0138,0.014,0.0147,0.0146,0.0148,0.015,0.0145,0.0144,0.0132,0.0108,0.0099,0.0129,0.0066,0.0056,0.0015,0.0022,0.0009,0.0006,-0.0028,-0.0026,-0.0025,-0.0011,0,0,0,0,0,0,0.0137,0.0139,0.0138,0.0146,0.0149,0.0167,0.0146,0.0145,0.0143,0.014,0.0096,0.0087,0.0064,0.002,0.0012,0.0018,0.0004,-0.0029,-0.0027,-0.0026,-0.0013,-0.0009,-0.0007,0,0,0,0,0,0.0136,0.0148,0.0137,0.014,0.0146,0.0169,0.017,0.0166,0.0144,0.0148,0.0106,0.0088,0.0026,0.0017,0.0008,0.0013,-0.003,-0.0028,-0.0026,-0.0014,-0.001,-0.0007,0,0,0,0,0,0,0.0147,0.0147,0.0135,0.0146,0.0156,0.0165,0.0174,0.0163,0.0136,0.013,0.0082,0.007,0.0042,0.0029,0.002,0.0013,0.0002,0.0003,0.0015,0.0018,0.0021,0.0047,0.0001,0,0,0,0,0,0.0147,0.015,0.0155,0.0165,0.0167,0.0164,0.0171,0.0174,0.0157,0.0145,0.0112,0.0081,0.0048,0.0031,0.001,-0.0006,-0.0015,0.0,0.0003,0.0006,0.0024,0.0002,0.0004,-0.0018,-0.0018,-0.0018,0,0,0.0161,0.0158,0.0163,0.0167,0.0169,0.0188,0.0164,0.0187,0.0208,0.0138,0.0136,0.0085,0.0046,0.003,0.0019,0.0015,0.0008,0.0008,0.001,0.0028,0.0004,0.0006,0.0007,-0.0017,-0.0017,-0.0017,0,0,0.0191,0.0178,0.0188,0.0197,0.0211,0.0214,0.0217,0.0223,0.0226,0.0222,0.017,0.0119,0.0091,0.0054,0.0032,0.0041,0.0021,0.0042,0.0076,0.0054,0.0055,0.0056,0.0045,0.0045,0.0047,0.0047,0.0047,0,0.0204,0.0213,0.02,0.0214,0.0233,0.0222,0.0252,0.026,0.0255,0.0254,0.0233,0.016,0.0107,0.007,0.0066,0.0046,0.0037,0.0057,0.0056,0.0057,0.0058,0.0047,0.0046,0.0048,0.0048,0.0048,0.0048,0,0.0247,0.0251,0.0261,0.0268,0.0288,0.0317,0.0332,0.0345,0.0337,0.0332,0.0304,0.0231,0.0188,0.0157,0.0105,0.0084,0.0077,0.0055,0.0042,0.006,0.0048,0.0047,0.005,0.0049,0.0049,0.0049,0,0,0.0279,0.0287,0.0291,0.0304,0.0323,0.0351,0.0386,0.041,0.0431,0.0406,0.0413,0.0324,0.0275,0.0247,0.0174,0.0137,0.0106,0.0099,0.0098,0.0083,0.0069,0.0046,0.0043,0.008,0.0081,0.0081,0.0057,0,0.0311,0.0348,0.035,0.0398,0.0418,0.0429,0.0463,0.0487,0.0492,0.0496,0.0425,0.0396,0.0317,0.0279,0.0232,0.0135,0.0107,0.0116,0.0061,0.006,0.0031,0.0042,0.0061,0.004,0.0056,0.0056,0.0056,0,0.035,0.0368,0.0418,0.0457,0.0469,0.0499,0.0556,0.059,0.0591,0.0593,0.0554,0.0499,0.0423,0.0361,0.0242,0.0253,0.0172,0.0102,0.0099,0.0077,0.0037,0.0026,0.0038,0.0055,0.0055,0.0055,0.0055,0,0.0386,0.0418,0.0461,0.0477,0.0519,0.055,0.0577,0.0606,0.0651,0.0645,0.0662,0.0577,0.0535,0.0433,0.0283,0.0265,0.0164,0.0125,0.0038,0.0036,0.0043,0.0041,0.0063,0.0063,0.0063,0.0063,0.0063,0,0.0423,0.0455,0.0475,0.0506,0.0564,0.0583,0.0652,0.0675,0.071,0.0763,0.0701,0.0715,0.055,0.047,0.0332,0.0191,0.0209,0.0056,0.003,0.0049,0.0048,0.0055,0.0055,0.0062,0.0062,0.0062,0.0063,0,0.0455,0.0466,0.0519,0.0566,0.0581,0.0628,0.0703,0.0758,0.0783,0.0853,0.0854,0.0814,0.0713,0.0555,0.0381,0.026,0.0119,0.0065,0.0102,0.008,-0.0003,-0.0003,-0.0023,-0.0024,-0.0024,-0.0025,-0.0026,0,0.0475,0.0503,0.0567,0.0608,0.0627,0.0688,0.0742,0.0787,0.0855,0.0919,0.0959,0.0888,0.0851,0.0603,0.0374,0.0161,0.0123,0.0036,-0.0005,0.0012,-0.0012,-0.001,-0.0008,0.0011,0.0011,0.0011,0.0011,0,0.0518,0.054,0.0589,0.0668,0.0726,0.0799,0.0873,0.0935,0.1006,0.1062,0.1116,0.1086,0.0868,0.0645,0.0353,0.0207,0.0069,0.0025,0.0041,0.0026,0.004,0.0018,0.002,0.0009,0.0009,0.0009,0.0009,0.0009,0.0552,0.0594,0.0661,0.0738,0.0812,0.0905,0.097,0.1055,0.1155,0.1232,0.1208,0.1159,0.0931,0.0542,0.0303,0.0052,0.006,-0.0038,-0.0036,-0.0034,-0.003,-0.0018,-0.0059,-0.0059,-0.0059,-0.0059,-0.0059,0,0.0594,0.0646,0.0727,0.0824,0.0914,0.094,0.1063,0.1125,0.1233,0.1275,0.1292,0.1066,0.0829,0.0567,0.0194,-0.0025,-0.0038,-0.0095,-0.0064,-0.006,-0.0057,-0.0054,-0.009,-0.0091,-0.0092,-0.0092,0,0,0.0621,0.0699,0.0742,0.0889,0.0961,0.1072,0.114,0.1222,0.1274,0.1296,0.1256,0.1187,0.0889,0.0611,0.0324,0.0113,0.0075,0.0072,0.0121,0.0196,0.0201,0.0001,0.0013,0,0,0,0,0]}],[{"header":{"parameterUnit":"m.s-1","parameterCategory":2,"la1":30.2991,"la2":30.254,"lo1":-89.0895,"lo2":-89.0444,"dy":0.0017,"dx":0.0017,"nx":28,"ny":28,"refTime":"2024-03-02T09:00:00:Z","depth":"4","parameterNumber":2,"parameterNumberName":"U-component_of_CURRENTS"},"data":[0,0,0,0,0,0,0,0,0,0,0,0,0,0,0,0,0,0,0,0,0,0,0,0,0,0,0,0,0,0,0,0,0,0,0,0,0,0,0,0,0,0,0,0,0,0,0,0,0,0,0,0,0,0,0,0,0,0,0.1087,0.1087,0,0.1095,0.1095,0.1095,0.1129,0.113,0.1131,0.1132,0.1217,0.1218,0.122,0,0,0,0,0,0,0,0,0,0,0,0,0,0.1065,0.1066,0.1087,0.1087,0.1088,0.1095,0.1095,0.1095,0.1129,0.113,0.1131,0.1132,0.1217,0.1218,0.122,0,0,0,0,0,0,0,0,0,0,0,0,0,0.1073,0.1066,0.1087,0.1107,0.1109,0.1095,0.1095,0.1095,0.1129,0.113,0.1132,0.1133,0.1216,0.1218,0.122,0.1204,0,0,0.1226,0.1227,0,0,0,0,0,0,0,0,0.1072,0.1073,0.1104,0.1105,0.1108,0.1114,0.1119,0.1136,0.1128,0.1119,0.1132,0.1134,0.119,0.1194,0.1189,0.1208,0.1212,0.1227,0.1228,0.1229,0.1229,0,0,0,0,0,0,0,0.1072,0.1073,0.1089,0.1104,0.1106,0.1103,0.1106,0.1121,0.1147,0.112,0.1123,0.1126,0.1192,0.1187,0.1191,0.1213,0.1227,0.1228,0.123,0.1231,0.1323,0.1324,0,0,0,0,0,0,0.1074,0.1072,0.1088,0.1089,0.1095,0.1102,0.1105,0.1109,0.1145,0.1152,0.1125,0.1128,0.1183,0.1189,0.1195,0.127,0.1229,0.1231,0.1232,0.1322,0.1323,0.1325,0,0,0,0,0,0,0.1074,0.1076,0.1088,0.1082,0.1084,0.1102,0.1105,0.1109,0.1131,0.1148,0.1156,0.1148,0.1184,0.1192,0.1234,0.127,0.1232,0.1234,0.132,0.1322,0.1324,0.1362,0,0,0,0,0,0,0.1073,0.1075,0.1086,0.1082,0.1084,0.1098,0.1104,0.1108,0.113,0.1134,0.117,0.1177,0.1186,0.1231,0.1236,0.1272,0.1235,0.1319,0.1321,0.1323,0.1359,0.1364,0.1369,0,0,0,0,0,0.1072,0.1079,0.1086,0.1088,0.1096,0.1098,0.1099,0.1115,0.113,0.1141,0.1169,0.1178,0.1249,0.1233,0.1239,0.1277,0.1318,0.132,0.1323,0.1356,0.1363,0.1369,0,0,0,0,0,0,0.1075,0.1083,0.1091,0.11,0.1108,0.1105,0.1123,0.1127,0.1153,0.1172,0.1186,0.1196,0.1253,0.1253,0.1235,0.131,0.1288,0.1292,0.1311,0.1318,0.1323,0.1318,0.1237,0,0,0,0,0,0.1079,0.1087,0.1093,0.1102,0.1116,0.1123,0.113,0.1139,0.1157,0.1171,0.1192,0.1224,0.1261,0.1281,0.1309,0.1339,0.1351,0.137,0.1375,0.1379,0.138,0.1436,0.1446,0.1334,0.1333,0.1333,0,0,0.1078,0.1087,0.109,0.1104,0.1118,0.113,0.1132,0.1153,0.1164,0.1176,0.1213,0.1247,0.1275,0.132,0.1345,0.1329,0.1417,0.1383,0.1387,0.1385,0.144,0.1451,0.146,0.1335,0.1335,0.1335,0,0,0.108,0.11,0.1111,0.1124,0.1149,0.1151,0.1163,0.1177,0.1194,0.1219,0.1248,0.1296,0.1333,0.1363,0.1383,0.143,0.1449,0.1452,0.147,0.1524,0.1534,0.1542,0.1566,0.1576,0.1447,0.1448,0.1448,0,0.1089,0.1098,0.1114,0.1134,0.1148,0.1165,0.1181,0.1193,0.1214,0.1236,0.1241,0.1326,0.135,0.1415,0.1436,0.1443,0.1471,0.1443,0.1531,0.154,0.1548,0.157,0.1581,0.145,0.1449,0.1449,0.1449,0,0.1091,0.1113,0.1128,0.1156,0.117,0.119,0.1209,0.1232,0.1254,0.1266,0.1338,0.1371,0.1424,0.1445,0.1455,0.1536,0.1536,0.1538,0.1514,0.1562,0.1582,0.1593,0.1453,0.1452,0.1451,0.1451,0,0,0.1086,0.1122,0.1134,0.1152,0.1188,0.1197,0.123,0.126,0.1294,0.1326,0.1376,0.1439,0.1472,0.1497,0.153,0.1571,0.165,0.1584,0.1586,0.1604,0.1765,0.1653,0.1654,0.1682,0.1684,0.1686,0.1752,0,0.1095,0.1119,0.114,0.1173,0.1188,0.1224,0.1249,0.1281,0.1317,0.1369,0.1421,0.1487,0.1488,0.1538,0.158,0.1648,0.1682,0.163,0.1717,0.1719,0.1613,0.1665,0.1693,0.176,0.1763,0.1765,0.1766,0,0.1095,0.111,0.1133,0.118,0.1197,0.1226,0.1284,0.131,0.1382,0.1417,0.1488,0.1534,0.162,0.161,0.1725,0.1702,0.1735,0.1765,0.1768,0.1658,0.1628,0.1705,0.1785,0.1784,0.1782,0.1781,0.178,0,0.1061,0.1114,0.1129,0.1144,0.1191,0.1232,0.1274,0.1336,0.1375,0.1471,0.1519,0.1608,0.1683,0.174,0.1801,0.1785,0.1912,0.1892,0.1812,0.1804,0.1867,0.1857,0.196,0.196,0.196,0.196,0.1959,0,0.1047,0.107,0.1127,0.1133,0.1179,0.1227,0.1295,0.1344,0.1431,0.1484,0.156,0.1618,0.1729,0.1805,0.1833,0.1857,0.194,0.1821,0.1821,0.1879,0.187,0.1874,0.1863,0.1962,0.1961,0.1961,0.1961,0,0.1003,0.1034,0.1064,0.1131,0.1161,0.1201,0.1314,0.1356,0.1446,0.1524,0.1565,0.1671,0.1765,0.184,0.1944,0.1897,0.1927,0.1911,0.1964,0.1965,0.177,0.176,0.1819,0.1816,0.1814,0.1811,0.1809,0,0.0974,0.0977,0.1054,0.1078,0.1122,0.1197,0.1243,0.1352,0.1396,0.1535,0.156,0.1693,0.1752,0.1799,0.1881,0.192,0.19,0.189,0.1821,0.1765,0.176,0.1754,0.1749,0.1805,0.1804,0.1804,0.1803,0,0.092,0.0959,0.0984,0.1027,0.1089,0.114,0.1226,0.1256,0.1371,0.1475,0.1526,0.1576,0.1675,0.1735,0.1788,0.1806,0.1882,0.1861,0.1866,0.1801,0.1748,0.1744,0.1742,0.1793,0.1795,0.1796,0.1796,0,0.0894,0.0905,0.094,0.0974,0.103,0.1056,0.112,0.118,0.1242,0.1394,0.1413,0.1541,0.1658,0.1677,0.172,0.1739,0.1707,0.1639,0.1654,0.1666,0.1585,0.1494,0.1468,0,0,0,0,0,0.0865,0.0865,0.0881,0.091,0.0952,0.099,0.1079,0.1142,0.1272,0.1274,0.1338,0.1414,0.1482,0.1544,0.1535,0.1655,0.1714,0.1635,0.1643,0.1741,0.1752,0.1672,0,0,0,0,0,0,0.0845,0.0866,0.0859,0.0833,0.0841,0.0887,0.0947,0.1036,0.104,0.1176,0.1222,0.1324,0.1414,0.1479,0.1507,0.1528,0.1502,0.1719,0.1715,0.1735,0.1745,0.1753,0.1675,0,0,0,0,0]},{"header":{"parameterUnit":"m.s-1","parameterCategory":2,"la1":30.2991,"la2":30.254,"lo1":-89.0895,"lo2":-89.0444,"dy":0.0017,"dx":0.0017,"nx":28,"ny":28,"refTime":"2024-03-02T09:00:00:Z","depth":"4","parameterNumber":3,"parameterNumberName":"V-component_of_CURRENTS"},"data":[0,0,0,0,0,0,0,0,0,0,0,0,0,0,0,0,0,0,0,0,0,0,0,0,0,0,0,0,0,0,0,0,0,0,0,0,0,0,0,0,0,0,0,0,0,0,0,0,0,0,0,0,0,0,0,0,0,0,0.0245,0.0245,0,0.0244,0.0244,0.0244,0.0231,0.023,0.023,0.023,0.0197,0.0197,0.0196,0,0,0,0,0,0,0,0,0,0,0,0,0,0.0236,0.0237,0.0245,0.0245,0.0245,0.0244,0.0244,0.0244,0.0231,0.023,0.023,0.023,0.0198,0.0197,0.0196,0,0,0,0,0,0,0,0,0,0,0,0,0,0.0237,0.0237,0.0245,0.0239,0.0239,0.0244,0.0244,0.0244,0.0231,0.023,0.023,0.023,0.0198,0.0197,0.0196,0.0197,0,0,0.0193,0.0193,0,0,0,0,0,0,0,0,0.0237,0.0238,0.024,0.0239,0.0239,0.0238,0.023,0.0227,0.0231,0.0232,0.023,0.0229,0.0209,0.0207,0.0207,0.0196,0.0195,0.0193,0.0192,0.0192,0.0192,0,0,0,0,0,0,0,0.0237,0.0237,0.0243,0.024,0.0239,0.0238,0.0237,0.0229,0.0221,0.0232,0.0232,0.0234,0.0208,0.0208,0.0206,0.0194,0.0193,0.0192,0.0192,0.0191,0.0189,0.0189,0,0,0,0,0,0,0.024,0.0237,0.0243,0.0243,0.0239,0.0238,0.0237,0.0238,0.0222,0.022,0.0234,0.0233,0.021,0.0207,0.0205,0.0222,0.0192,0.0191,0.0191,0.0188,0.0189,0.0189,0,0,0,0,0,0,0.024,0.024,0.0243,0.0241,0.0242,0.0239,0.0239,0.0238,0.0239,0.0224,0.0221,0.0236,0.0209,0.0206,0.0204,0.022,0.0191,0.019,0.0188,0.0188,0.0189,0.0246,0,0,0,0,0,0,0.024,0.024,0.0244,0.0242,0.0242,0.0254,0.024,0.0238,0.0241,0.024,0.0225,0.0222,0.0209,0.0205,0.0203,0.0218,0.0189,0.0187,0.0188,0.0189,0.0243,0.0249,0.0253,0,0,0,0,0,0.0239,0.0251,0.0244,0.0245,0.0246,0.0255,0.0255,0.025,0.0242,0.0249,0.0237,0.0222,0.0209,0.0205,0.0202,0.0217,0.0187,0.0188,0.0189,0.0241,0.0248,0.0253,0,0,0,0,0,0,0.0252,0.025,0.0243,0.0254,0.0255,0.0253,0.026,0.0254,0.0251,0.0251,0.0229,0.0226,0.0227,0.0214,0.021,0.0218,0.0195,0.0196,0.0236,0.0242,0.0247,0.0257,0.0188,0,0,0,0,0,0.0256,0.0265,0.0259,0.0271,0.0269,0.0263,0.0266,0.0266,0.0262,0.0261,0.0251,0.0239,0.0229,0.0229,0.0218,0.0227,0.0195,0.0233,0.0238,0.0242,0.0248,0.0208,0.021,0.0193,0.0193,0.0193,0,0,0.0265,0.0267,0.0272,0.0275,0.0273,0.0282,0.0264,0.0276,0.0291,0.0258,0.0273,0.0253,0.0233,0.0241,0.0241,0.0234,0.023,0.0244,0.0248,0.0251,0.021,0.0211,0.0213,0.0194,0.0194,0.0194,0,0,0.0291,0.0287,0.0298,0.0301,0.0305,0.0305,0.0309,0.0309,0.0313,0.0326,0.0301,0.0292,0.0288,0.0274,0.0266,0.029,0.0251,0.0288,0.0329,0.0291,0.0291,0.0292,0.0253,0.0249,0.0298,0.0298,0.0298,0,0.0298,0.0313,0.0305,0.0316,0.0326,0.0316,0.0333,0.0338,0.0342,0.0348,0.034,0.0323,0.0304,0.0303,0.0314,0.0301,0.0272,0.031,0.0297,0.0296,0.0296,0.0255,0.0251,0.0301,0.03,0.03,0.03,0,0.0328,0.034,0.0349,0.0359,0.0369,0.0387,0.0389,0.0403,0.0406,0.0406,0.041,0.0385,0.0373,0.0367,0.035,0.0343,0.0321,0.0301,0.0283,0.0301,0.0257,0.0251,0.0305,0.0304,0.0303,0.0302,0,0,0.0338,0.0364,0.0367,0.0383,0.0396,0.041,0.0436,0.0453,0.0468,0.047,0.0483,0.0466,0.0446,0.0435,0.0408,0.0384,0.0352,0.0351,0.0348,0.0314,0.0267,0.0242,0.0233,0.0331,0.033,0.033,0.0237,0,0.036,0.0398,0.0405,0.0445,0.0462,0.0468,0.0494,0.051,0.0516,0.0525,0.0503,0.0499,0.0474,0.0468,0.044,0.0371,0.034,0.0379,0.0253,0.0249,0.0226,0.0226,0.0328,0.0232,0.0231,0.023,0.0229,0,0.0378,0.0406,0.0451,0.0492,0.0499,0.0524,0.0561,0.0584,0.059,0.0592,0.0585,0.0557,0.0527,0.0498,0.0401,0.0428,0.0356,0.0301,0.0296,0.025,0.0214,0.0209,0.0218,0.0219,0.022,0.022,0.0221,0,0.0392,0.0434,0.0479,0.0493,0.0536,0.0562,0.0586,0.0605,0.0629,0.063,0.0635,0.0594,0.057,0.0487,0.0381,0.0387,0.0261,0.0249,0.0158,0.0155,0.018,0.018,0.0173,0.0173,0.0173,0.0173,0.0174,0,0.0409,0.0442,0.0492,0.0515,0.0569,0.059,0.0639,0.0654,0.0675,0.0698,0.0668,0.0661,0.0565,0.0484,0.0387,0.0255,0.026,0.0163,0.013,0.0206,0.021,0.0175,0.0177,0.017,0.0171,0.0171,0.0172,0,0.0414,0.0446,0.0499,0.0557,0.0577,0.0618,0.0675,0.0706,0.0722,0.0748,0.075,0.0702,0.0599,0.0487,0.0338,0.0259,0.0135,0.0082,0.0171,0.0144,0.0053,0.0059,-0.0022,-0.0024,-0.0025,-0.0027,-0.0028,0,0.0419,0.0449,0.0527,0.0562,0.0591,0.065,0.069,0.0727,0.0757,0.0768,0.0775,0.0695,0.0645,0.0422,0.03,0.011,0.0082,0.0016,0.0042,0.0057,0.0033,0.0041,0.0048,-0.003,-0.003,-0.003,-0.0031,0,0.0427,0.0461,0.0506,0.0577,0.063,0.0693,0.0747,0.0768,0.081,0.0821,0.0787,0.0688,0.0566,0.0411,0.0259,0.0125,0.0062,0.0001,0.0003,0.0027,0.0047,0.0026,0.0035,-0.0036,-0.0035,-0.0034,-0.0034,0,0.0432,0.0462,0.0523,0.0587,0.0656,0.0717,0.0747,0.0777,0.0806,0.0815,0.0795,0.0683,0.062,0.0416,0.0277,0.0143,0.0112,0.0071,0.007,0.0073,0.0131,0.0173,0.0098,0,0,0,0,0,0.0433,0.0467,0.0524,0.0599,0.067,0.0714,0.0779,0.0804,0.0834,0.0813,0.0809,0.0698,0.0502,0.0418,0.0278,0.0242,0.0082,0.0072,0.0033,-0.0062,-0.0057,-0.0007,0,0,0,0,0,0,0.0432,0.0485,0.0518,0.06,0.0652,0.0732,0.0778,0.08,0.0786,0.0794,0.069,0.0655,0.0462,0.0581,0.0274,0.0234,0.0188,-0.0013,-0.0016,-0.0066,-0.006,-0.0056,-0.0003,0,0,0,0,0]}]]